GW0883 Weather Reports


Display with metric or nautical units.
time (UTC)temp
F
wind
direction
speed
MPH
gust
MPH
rain 1hr
in
rain 24hr
in
rain mn
in
humidity
%
barometer
mb
20260504214233 71 210 1.0 4.0 0.00 0.00 0.00 34 1009.2
20260504213233 71 249 2.0 5.0 0.00 0.00 0.00 34 1009.2
20260504212233 71 223 6.0 14.0 0.00 0.00 0.00 35 1009.2
20260504210233 72 239 3.0 8.0 0.00 0.00 0.00 35 1009.1
20260504204333 72 222 4.0 8.0 0.00 0.00 0.00 35 1009.2
20260504202433 71 208 6.0 12.0 0.00 0.00 0.00 35 1009.1
20260504201434 71 233 4.0 10.0 0.00 0.00 0.00 36 1009.2
20260504195531 71 248 4.0 8.0 0.00 0.00 0.00 37 1009.3
20260504194535 71 231 3.0 8.0 0.00 0.00 0.00 38 1009.3
20260504193533 71 313 3.0 8.0 0.00 0.00 0.00 37 1009.0
20260504192533 70 286 6.0 10.0 0.00 0.00 0.00 39 1009.3
20260504191533 70 238 6.0 11.0 0.00 0.00 0.00 38 1009.3
20260504190534 70 237 7.0 17.0 0.00 0.00 0.00 39 1009.5
20260504185534 70 225 10.0 16.0 0.00 0.00 0.00 39 1009.2
20260504184536 70 292 4.0 11.0 0.00 0.00 0.00 40 1009.7
20260504183533 70 224 8.0 13.0 0.00 0.00 0.00 40 1009.8
20260504182533 69 233 7.0 11.0 0.00 0.00 0.00 41 1009.8
20260504181534 69 231 7.0 14.0 0.00 0.00 0.00 41 1009.9
20260504180534 68 218 5.0 12.0 0.00 0.00 0.00 42 1009.7
20260504175633 68 207 11.0 18.0 0.00 0.00 0.00 43 1010.0
20260504173633 68 259 2.0 5.0 0.00 0.00 0.00 44 1010.2
20260504172731 68 240 7.0 14.0 0.00 0.00 0.00 44 1010.3
20260504171734 67 256 6.0 9.0 0.00 0.00 0.00 45 1010.4
20260504170733 67 206 4.0 7.0 0.00 0.00 0.00 45 1010.4
20260504150834 64 239 5.0 10.0 0.00 0.00 0.00 53 1011.7
20260504120134 50 221 2.0 4.0 0.00 0.00 0.00 64 1013.5
20260504110332 47 250 1.0 3.0 0.00 0.00 0.00 65 1013.1
20260504100532 43 225 1.0 3.0 0.00 0.00 0.00 64 1013.0
20260504081833 42 225 0.0 0.0 0.00 0.00 0.00 61 1012.8
20260504080833 42 225 0.0 1.0 0.00 0.00 0.00 61 1012.8
20260504045049 35 225 1.0 1.0 0.00 0.00 0.00 53 1012.4
20260504044032 34 225 1.0 1.0 0.00 0.00 0.00 52 1012.5
20260504043049 34 225 1.0 2.0 0.00 0.00 0.00 53 1012.5
20260504042131 34 225 0.0 0.0 0.00 0.00 0.00 52 1012.3
20260504040231 34 225 0.0 1.0 0.00 0.00 0.00 52 1012.2
20260504035329 34 225 1.0 1.0 0.00 0.00 0.00 51 1012.0
20260504034329 34 225 0.0 0.0 0.00 0.00 0.00 51 1012.1
20260504033428 34 225 0.0 0.0 0.00 0.00 0.00 50 1012.0
20260504032429 34 225 0.0 0.0 0.00 0.00 0.00 50 1011.9
20260504031429 35 225 0.0 0.0 0.00 0.00 0.00 49 1011.9
20260504025430 36 225 0.0 0.0 0.00 0.00 0.00 50 1012.0
20260504024428 36 225 0.0 0.0 0.00 0.00 0.00 49 1011.8
20260504022429 37 225 0.0 1.0 0.00 0.01 0.00 49 1012.0
20260504021429 37 225 1.0 2.0 0.00 0.01 0.00 48 1011.9
20260504020429 38 247 0.0 1.0 0.00 0.01 0.00 48 1011.9
20260504015527 38 247 0.0 1.0 0.00 0.01 0.00 47 1011.8
20260504014527 38 247 0.0 0.0 0.00 0.01 0.00 48 1011.9
20260504013529 39 247 0.0 0.0 0.00 0.01 0.00 47 1011.7
20260504012527 39 247 0.0 0.0 0.00 0.01 0.00 48 1011.7
20260504011528 40 247 0.0 0.0 0.00 0.01 0.00 48 1011.7
20260504010528 41 247 0.0 0.0 0.00 0.01 0.00 47 1011.6
20260504005627 41 247 0.0 0.0 0.00 0.01 0.00 47 1011.5
20260504002727 44 247 0.0 0.0 0.00 0.01 0.00 47 1011.3
20260504001728 45 247 0.0 0.0 0.00 0.01 0.00 47 1011.2
20260504000728 46 247 0.0 0.0 0.00 0.01 0.00 48 1011.1
20260503235730 48 247 0.0 1.0 0.00 0.01 0.00 48 1011.0
20260503234828 48 292 0.0 0.0 0.00 0.01 0.00 48 1011.1
20260503232827 50 225 0.0 0.0 0.00 0.01 0.00 49 1010.9
20260503231828 51 252 3.0 6.0 0.00 0.01 0.00 49 1010.8
20260503230828 51 251 0.0 3.0 0.00 0.01 0.00 49 1010.7
20260503225927 51 203 1.0 3.0 0.00 0.01 0.00 49 1010.7
20260503224929 51 220 2.0 6.0 0.00 0.01 0.00 50 1010.5
20260503224028 51 185 1.0 2.0 0.00 0.01 0.00 51 1010.6
20260503223028 52 118 2.0 5.0 0.00 0.01 0.00 50 1010.5
20260503222929 52 14 4.0 8.0 0.00 0.01 0.00 50 1010.5
20260503222027 52 8 2.0 7.0 0.00 0.01 0.00 51 1010.4
20260503221029 52 239 4.0 7.0 0.00 0.01 0.00 52 1010.2
20260503220045 52 29 5.0 7.0 0.00 0.01 0.00 52 1010.2
20260503215128 52 269 3.0 8.0 0.00 0.01 0.00 53 1010.0